Location: Treviso
(45.6669°N, 12.2430°E)
Time: 06:46:45
(UTC+01:00)

ISS - Pass Details

Date: 12 November 2018
Orbit: 402 x 408 km, 51.6° (Epoch: 16 November)

Event Time Altitude Azimuth Distance (km) Brightness Sun altitude
Exits shadow 05:51:39 25° 275° (W) 868 -2.8 -13.1°
Maximum altitude 05:53:11 45° 216° (SW) 563 -3.3 -12.9°
Drops below altitude 10° 05:56:20 10° 142° (SE) 1,458 -0.2 -12.3°
Sets 05:58:27 0° 136° (SE) 2,315 1.1 -12.0°
